Selawik, AK

12:12 PM AKDT on June 28, 2017 (GMT -0800)
Selawik

Weather History for PASK - November, 2013

Change the Weather History Date:

Wednesday, November 6, 2013

  Actual Average Record
Temperature  
Mean Temperature 1 °F -  
Max Temperature 15 °F 13 °F 35 °F (2003)
Min Temperature -13 °F 5 °F -13 °F (2013)
Degree Days  
Heating Degree Days 64    
Moisture  
Dew Point 0 °F    
Average Humidity 90    
Maximum Humidity 100    
Minimum Humidity 71    
Precipitation  
Precipitation 0.00 in - - ()
Sea Level Pressure  
Sea Level Pressure 30.20 in    
Wind  
Wind Speed 12 mph (ENE)    
Max Wind Speed 34 mph    
Max Gust Speed 39 mph    
Visibility 8 miles    
Events      
Averages and records for this station are not official NWS values.
T = Trace of Precipitation, MM = Missing Value Source: NWS Daily Summary

Daily Weather History Graph

Daily Weather History Graph

Search for Another Location

Airport or City:

Trip Planner

Search our weather history database for the weather conditions in past years. The results will help you decide how hot, cold, wet, or windy it might be!

Date:

Astronomy

Nov. 06, 2013 Rise Set
Actual Time 10:00 AM AKST 4:45 PM AKST
Civil Twilight 8:57 AM AKST 5:48 PM AKST
Nautical Twilight 7:52 AM AKST 6:53 PM AKST
Astronomical Twilight 6:51 AM AKST 7:54 PM AKST
Moon 2:15 PM AKST (11/6) 7:16 PM AKST (11/6)
Length of Visible Light 8h 51m
Length of Day
6h 44m
Waxing Crescent, 15% of the Moon is Illuminated
Nov 6
Waxing Crescent
Nov 9
First Quarter
Nov 17
Full
Nov 25
Last Quarter
Dec 2
New

Hourly Weather History & Observations

Time (AKST) Temp. Windchill Dew Point Humidity Pressure Visibility Wind Dir Wind Speed Gust Speed Precip Events Conditions
12:16 AM -0.4 °F -8.3 °F -4.0 °F 85% 30.37 in 10.0 mi WSW 3.5 mph - N/A   Clear
12:36 AM -5.8 °F - -7.6 °F 92% 30.37 in 10.0 mi Calm Calm - N/A   Clear
12:56 AM -7.6 °F - -14.8 °F 71% 30.37 in 10.0 mi Calm Calm - N/A   Clear
1:16 AM -5.8 °F - -5.8 °F 100% 30.37 in 10.0 mi Calm Calm - N/A   Clear
1:36 AM -5.8 °F - -5.8 °F 100% 30.36 in 10.0 mi Calm Calm - N/A   Clear
1:56 AM -5.8 °F - -7.6 °F 92% 30.36 in 10.0 mi Calm Calm - N/A   Clear
2:16 AM -7.6 °F - -7.6 °F 100% 30.36 in 10.0 mi Calm Calm - N/A   Clear
2:36 AM -9.4 °F -22.7 °F -11.2 °F 92% 30.36 in 10.0 mi SE 5.8 mph - N/A   Clear
2:56 AM -9.4 °F -22.7 °F -11.2 °F 92% 30.36 in 10.0 mi ESE 5.8 mph - N/A   Clear
3:16 AM -9.4 °F -22.7 °F -9.4 °F 100% 30.36 in 10.0 mi East 5.8 mph - N/A   Clear
3:36 AM -7.6 °F -20.6 °F -7.6 °F 100% 30.35 in 10.0 mi ENE 5.8 mph - N/A   Clear
3:56 AM -7.6 °F -22.1 °F -7.6 °F 100% 30.35 in 10.0 mi East 6.9 mph - N/A   Clear
4:16 AM -9.4 °F -22.7 °F -13.0 °F 84% 30.33 in 10.0 mi NE 5.8 mph - N/A   Clear
4:36 AM -9.4 °F -24.3 °F -11.2 °F 92% 30.33 in 10.0 mi NE 6.9 mph - N/A   Clear
4:56 AM - - - N/A% 30.31 in 10.0 mi NE 6.9 mph - N/A   Clear
5:16 AM - - - N/A% 30.31 in 10.0 mi ENE 6.9 mph - N/A   Clear
5:36 AM - - - N/A% 30.32 in 10.0 mi ENE 6.9 mph - N/A   Clear
5:56 AM - - - N/A% 30.31 in 10.0 mi ENE 12.7 mph - N/A   Clear
6:16 AM -11.2 °F -32.1 °F -11.2 °F 100% 30.32 in 10.0 mi ENE 12.7 mph - N/A   Clear
6:36 AM -11.2 °F -30.1 °F -11.2 °F 100% 30.32 in 10.0 mi ENE 10.4 mph - N/A   Clear
6:56 AM - - - N/A% 30.33 in 10.0 mi East 8.1 mph - N/A   Clear
7:16 AM -13.0 °F -33.4 °F -14.8 °F 92% 30.32 in 10.0 mi East 11.5 mph - N/A   Clear
7:36 AM - - - N/A% 30.31 in 10.0 mi ENE 11.5 mph - N/A   Clear
7:56 AM -11.2 °F -30.1 °F -14.8 °F 84% 30.31 in 10.0 mi ENE 10.4 mph - N/A   Clear
8:16 AM -9.4 °F -30.6 °F -11.2 °F 92% 30.29 in 5.0 mi ENE 13.8 mph - N/A   Clear
8:36 AM -5.8 °F -28.8 °F -5.8 °F 100% 30.28 in 2.5 mi ENE 18.4 mph - N/A   Clear
8:56 AM -5.8 °F -28.8 °F -7.6 °F 92% 30.28 in 5.0 mi ENE 18.4 mph - N/A   Clear
9:16 AM -2.2 °F -25.2 °F -2.2 °F 100% 30.28 in 10.0 mi ENE 20.7 mph - N/A   Clear
9:36 AM -2.2 °F -25.2 °F -4.0 °F 92% 30.27 in 10.0 mi ENE 20.7 mph - N/A   Clear
9:56 AM -2.2 °F -24.7 °F -4.0 °F 92% 30.27 in 9.0 mi ENE 19.6 mph - N/A   Clear
10:16 AM -2.2 °F -25.2 °F -5.8 °F 85% 30.26 in 10.0 mi ENE 20.7 mph - N/A   Clear
10:36 AM -2.2 °F -24.1 °F -5.8 °F 85% 30.26 in 10.0 mi ENE 18.4 mph - N/A   Clear
10:56 AM -2.2 °F -24.7 °F -2.2 °F 100% 30.25 in 10.0 mi ENE 19.6 mph - N/A   Clear
11:16 AM -0.4 °F -22.3 °F -2.2 °F 92% 30.24 in 10.0 mi ENE 19.6 mph - N/A   Clear
11:36 AM -0.4 °F -21.2 °F -2.2 °F 92% 30.24 in 10.0 mi ENE 17.3 mph - N/A   Clear
11:56 AM -0.4 °F -21.7 °F -2.2 °F 92% 30.24 in 10.0 mi ENE 18.4 mph - N/A   Clear
12:16 PM -0.4 °F -22.3 °F -2.2 °F 92% 30.23 in 10.0 mi ENE 19.6 mph - N/A   Clear
12:36 PM -0.4 °F -21.7 °F -0.4 °F 100% 30.22 in 10.0 mi ENE 18.4 mph - N/A   Clear
12:56 PM 1.4 °F -20.5 °F -0.4 °F 92% 30.21 in 10.0 mi ENE 20.7 mph - N/A   Clear
1:16 PM 1.4 °F -21.4 °F -0.4 °F 92% 30.20 in 10.0 mi ENE 23.0 mph - N/A   Clear
1:36 PM 1.4 °F -21.0 °F 1.4 °F 100% 30.19 in 10.0 mi ENE 21.9 mph - N/A   Clear
1:56 PM 3.2 °F -19.0 °F -0.4 °F 85% 30.18 in 10.0 mi ENE 23.0 mph 26.5 mph N/A   Clear
2:16 PM 3.2 °F -18.6 °F 1.4 °F 92% 30.17 in 10.0 mi ENE 21.9 mph - N/A   Clear
2:36 PM 3.2 °F -18.6 °F -0.4 °F 85% 30.16 in 10.0 mi ENE 21.9 mph - N/A   Clear
2:56 PM 3.2 °F -19.5 °F 1.4 °F 92% 30.16 in 7.0 mi ENE 24.2 mph - N/A   Clear
3:16 PM 3.2 °F -17.1 °F 3.2 °F 100% 30.15 in 10.0 mi East 18.4 mph - N/A   Clear
3:36 PM 3.2 °F -16.5 °F -0.4 °F 85% 30.14 in 10.0 mi ENE 17.3 mph - N/A   Clear
3:56 PM 6.8 °F -13.8 °F 5.0 °F 92% 30.13 in 10.0 mi ENE 21.9 mph - N/A   Clear
4:16 PM 8.6 °F -9.5 °F 3.2 °F 79% 30.13 in 10.0 mi ENE 17.3 mph - N/A   Clear
4:36 PM 8.6 °F -8.9 °F 5.0 °F 85% 30.12 in 10.0 mi NE 16.1 mph - N/A   Clear
4:56 PM 8.6 °F -8.9 °F 3.2 °F 79% 30.11 in 10.0 mi ENE 16.1 mph - N/A   Clear
5:16 PM 8.6 °F -8.3 °F 6.8 °F 92% 30.09 in 10.0 mi East 15.0 mph - N/A   Clear
5:36 PM 10.4 °F -8.6 °F 8.6 °F 92% 30.08 in 10.0 mi East 20.7 mph - N/A   Clear
5:56 PM 12.2 °F -9.3 °F 10.4 °F 92% 30.06 in 4.0 mi East 29.9 mph 35.7 mph N/A   Clear
6:16 PM 14.0 °F -6.8 °F 10.4 °F 86% 30.05 in 2.0 mi East 29.9 mph - N/A   Clear
6:36 PM 14.0 °F -6.5 °F 10.4 °F 86% 30.05 in 4.0 mi East 28.8 mph 33.4 mph N/A   Clear
6:56 PM 14.0 °F -6.2 °F 10.4 °F 86% 30.04 in 2.5 mi East 27.6 mph - N/A   Clear
7:16 PM 14.0 °F -6.2 °F 10.4 °F 86% 30.03 in 3.0 mi ENE 27.6 mph 33.4 mph N/A   Clear
7:36 PM 14.0 °F -7.4 °F 10.4 °F 86% 30.02 in 1.8 mi East 32.2 mph 38.0 mph N/A   Clear
7:56 PM 14.0 °F -7.1 °F 10.4 °F 86% 30.02 in 2.0 mi East 31.1 mph - N/A   Clear
8:16 PM 15.8 °F -5.0 °F 10.4 °F 79% 30.02 in 1.5 mi ENE 32.2 mph 36.8 mph N/A   Clear
8:36 PM 15.8 °F -3.7 °F 10.4 °F 79% 30.04 in 4.0 mi ENE 27.6 mph 33.4 mph N/A   Clear
8:56 PM 15.8 °F -2.3 °F 10.4 °F 79% 30.03 in 10.0 mi ENE 23.0 mph 27.6 mph N/A   Clear
9:16 PM 14.0 °F -4.7 °F 10.4 °F 86% 30.02 in 10.0 mi ENE 23.0 mph 28.8 mph N/A   Clear
9:36 PM 14.0 °F -4.7 °F 10.4 °F 86% 30.01 in 10.0 mi ENE 23.0 mph - N/A   Clear
9:56 PM 14.0 °F -5.8 °F 10.4 °F 86% 29.99 in 6.0 mi ENE 26.5 mph - N/A   Clear
10:16 PM 14.0 °F -5.1 °F 10.4 °F 86% 29.99 in 8.0 mi ENE 24.2 mph - N/A   Clear
10:36 PM 15.8 °F -4.7 °F 12.2 °F 86% 29.98 in 3.0 mi East 31.1 mph 35.7 mph N/A   Clear
10:56 PM 15.8 °F -4.4 °F 10.4 °F 79% 29.97 in 2.5 mi East 29.9 mph 36.8 mph N/A   Clear
11:16 PM 14.0 °F -6.5 °F 10.4 °F 86% 29.96 in 3.0 mi East 28.8 mph 35.7 mph N/A   Clear
11:36 PM 14.0 °F -8.0 °F 10.4 °F 86% 29.95 in 1.5 mi East 34.5 mph 39.1 mph N/A   Clear
11:56 PM 14.0 °F -7.1 °F 10.4 °F 86% 29.95 in 2.0 mi ENE 31.1 mph 38.0 mph N/A   Clear